Online Auction of Sound, Stage, and Lighting Equipment for Sale in Orange County, CA

Lot #0125: 12' Aluminum Stage Truss

Bidding is closed.
High Bid:$301.00
NA
Bidding Ended: Thu, Jan 10  10:27:50 am PT
High Bidder: lakinetics
Bid Increment: $10.00
Starting Bid: $5.00
Item Location: Fullerton, CA 92833
Item has been viewed 446 times.

12' Aluminum Stage Truss

NOTE: Photos are representative of the lot. 

Bid Date Bid Amount Bidder
Jan 10, 2019 - 10:25:50 AM $301.00 ilakinetics
Jan 10, 2019 - 10:25:50 AM $291.00 iDano1954
Jan 10, 2019 - 10:25:18 AM $260.00 ilakinetics
Jan 10, 2019 - 10:25:18 AM $250.00 iDano1954
Jan 10, 2019 - 10:25:04 AM $220.00 ilakinetics
Jan 10, 2019 - 10:25:04 AM $210.00 iDano1954
Jan 10, 2019 - 7:56:09 AM $150.00 iDano1954
Jan 10, 2019 - 7:56:09 AM $145.00 islsprod
Jan 9, 2019 - 6:46:44 PM $90.00 islsprod
Jan 9, 2019 - 6:46:44 PM $85.00 ifuzztheraven
Jan 9, 2019 - 10:41:09 AM $60.00 ifuzztheraven
Jan 9, 2019 - 10:41:09 AM $55.00 idjcraze88
Jan 9, 2019 - 9:56:49 AM $50.00 ifuzztheraven
Jan 9, 2019 - 9:56:49 AM $45.00 imcannonjr
Jan 9, 2019 - 8:07:00 AM $40.00 imcannonjr
Jan 9, 2019 - 8:06:57 AM $35.00 itjoneslt
Jan 9, 2019 - 8:06:57 AM $30.00 imcannonjr
Jan 9, 2019 - 8:06:55 AM $25.00 itjoneslt
Jan 9, 2019 - 8:06:55 AM $20.00 imcannonjr
Jan 8, 2019 - 10:08:49 PM $15.00 itjoneslt
Jan 8, 2019 - 12:37:32 PM $10.00 iKurt Musser
Jan 8, 2019 - 11:58:28 AM $5.00 iJolaerts
Click on any picture to see a larger image.